Wind_Speed
15 16 17 19 20 21 21 22 22 24 25 26 29 31 31 32 36 23 20 15 10 18 7 9 14 19 18 17 19 19 14 15 21 20 17 10 3 7 7 10 9 11 11 12 17
15 16 17 19 20 20 21 21 23 24 26 28 29 31 30 29 32 26 20 16 13 12 9 15 15 16 14 17 16 17 15 22 21 20 17 11 13 15 9 13 14 11 13 12 16
17 18 17 18 19 20 22 22 24 25 27 28 30 31 27 24 13 3 4 1 2 9 13 16 19 16 18 18 20 20 20 22 24 24 21 14 14 17 15 16 15 10 12 6 14
17 18 19 20 21 21 22 24 25 27 28 29 31 28 23 8 6 5 5 2 2 2 8 15 15 18 19 19 20 25 23 23 24 22 20 20 18 17 17 18 16 13 11 9 1
18 21 21 22 23 24 24 25 26 28 29 29 27 20 12 8 14 15 6 8 6 7 14 12 14 16 19 19 21 24 24 24 23 23 20 22 19 20 20 18 17 16 14 8 3
19 21 23 24 26 27 28 27 27 28 29 29 19 16 7 13 10 1 5 9 13 12 16 17 14 15 18 20 21 22 25 23 22 23 22 23 23 19 20 18 18 16 12 9 6
19 19 24 25 29 32 31 30 28 28 30 23 13 7 11 22 15 20 17 15 13 15 14 16 21 20 19 20 19 22 25 24 23 24 24 22 23 22 19 21 22 16 11 9 9
18 20 22 25 31 36 33 32 30 27 24 15 12 6 8 11 11 15 12 14 14 16 15 14 12 8 9 15 21 25 23 19 18 23 25 23 24 21 20 20 9 9 8 15 13
19 20 23 25 31 37 34 33 29 23 17 10 5 9 9 3 9 4 4 7 8 13 19 17 14 14 12 15 16 18 21 25 26 22 26 24 22 18 18 13 8 10 11 12 13
20 20 22 24 31 36 34 31 22 21 11 8 13 8 10 9 10 15 13 14 10 9 7 11 9 13 14 14 18 19 19 19 21 21 24 25 21 16 18 18 13 14 14 12 6
21 21 21 25 28 34 32 20 1 5 9 12 10 16 22 25 22 21 19 16 11 13 15 14 10 16 20 21 24 22 24 19 23 29 27 24 22 16 17 16 15 12 13 12 10
19 20 20 24 29 30 21 9 6 8 13 19 26 25 30 22 11 15 13 12 16 19 17 15 19 17 19 22 20 22 21 23 23 26 26 29 23 17 16 17 15 15 14 13 9
19 20 19 22 28 18 10 4 10 14 8 15 21 16 12 15 12 12 13 16 17 18 20 20 21 18 20 20 19 20 23 19 22 25 31 29 25 22 18 17 17 18 15 14 7
18 17 17 21 17 16 13 7 11 11 6 7 9 7 10 8 8 19 11 10 15 24 20 19 18 20 21 19 17 20 19 21 20 18 16 23 17 20 15 21 22 23 18 16 9
17 15 14 14 19 15 13 12 13 6 6 9 11 15 10 11 4 14 12 10 15 15 14 20 16 21 23 23 21 20 14 16 20 20 17 25 15 15 18 14 14 13 12 14 15
16 15 14 16 16 16 13 14 10 5 9 7 9 11 13 16 12 7 11 11 12 12 16 22 20 21 16 16 17 19 13 19 17 15 16 19 19 17 15 17 19 17 15 12 11
16 15 14 16 16 18 12 12 6 8 5 9 11 11 12 13 16 13 14 16 11 11 15 19 22 22 21 19 14 16 11 10 12 13 15 18 19 14 16 19 18 14 6 8 2
17 16 16 19 18 18 11 9 12 13 20 7 1 3 11 14 15 15 12 14 17 21 13 14 17 15 19 24 19 19 15 8 10 11 7 18 8 15 19 16 10 6 4 8 11
14 17 22 18 20 17 8 13 11 18 19 20 11 11 14 17 10 13 12 17 12 5 3 11 18 5 2 9 19 22 18 18 18 18 12 9 20 21 8 1 8 11 7 6 9
14 15 24 19 19 14 8 22 21 27 24 6 14 6 12 14 17 17 15 12 5 1 3 9 11 15 12 6 11 22 14 11 10 10 10 12 16 8 8 10 4 12 8 10 11
8 4 13 20 18 6 11 20 21 27 20 5 12 16 16 16 16 16 9 11 2 3 4 11 7 15 18 10 11 12 16 15 14 15 12 9 8 7 6 18 7 8 10 6 8
2 5 10 19 7 5 14 24 23 23 13 8 11 14 16 15 13 15 14 12 5 6 11 12 8 13 20 11 21 7 13 18 11 15 10 13 15 12 12 15 7 7 10 9 8
3 4 11 12 6 11 14 22 23 21 11 12 13 12 14 15 15 15 16 15 17 16 8 5 7 11 18 18 17 14 14 11 17 14 19 12 8 12 3 17 11 3 7 12 5
3 4 6 3 10 16 13 19 19 15 12 14 14 13 13 15 14 15 17 14 14 8 10 1 12 15 12 8 6 10 18 19 14 5 12 15 18 16 8 10 14 9 5 9 9
2 6 9 5 11 15 18 12 11 15 12 12 14 18 16 14 15 16 17 19 16 12 11 9 16 18 23 26 18 18 15 18 20 16 9 13 15 13 8 7 14 15 13 12 11
2 4 8 12 7 7 15 17 20 17 13 16 14 15 13 15 16 16 18 14 11 11 13 14 16 19 23 23 24 22 22 18 22 22 19 17 17 14 13 13 13 12 12 14 14
8 13 4 6 10 10 12 12 17 17 14 17 10 10 12 10 10 10 11 11 11 11 10 9 12 16 18 20 23 22 20 20 21 21 18 17 15 16 18 15 13 12 13 14 12
Wind_Direction
350 346 345 341 341 340 339 338 340 337 335 334 333 332 333 330 316 311 275 263 236 240 257 248 224 234 240 248 245 247 252 259 260 268 284 346 289 202 244 272 271 271 276 237 166
341 340 339 336 335 334 333 334 335 334 332 330 330 330 332 330 312 287 266 266 253 247 233 229 227 230 240 244 240 240 249 255 260 277 303 319 309 294 247 254 261 260 268 271 128
332 333 333 332 331 330 329 331 330 330 329 327 328 328 331 329 295 70 120 112 268 247 230 231 241 243 241 244 246 243 245 260 277 292 309 304 284 288 281 276 267 266 269 322 165
333 333 332 331 331 328 328 328 327 327 325 325 327 325 328 315 288 91 109 92 54 182 230 239 251 242 245 247 251 256 252 255 267 278 285 289 289 274 277 277 287 296 284 290 266
334 333 332 332 330 327 325 323 323 322 321 321 323 324 333 251 256 273 318 300 273 249 247 255 246 245 253 256 254 259 261 258 264 261 276 281 270 275 275 275 284 288 280 283 219
330 323 328 331 331 328 324 321 319 317 317 318 320 322 273 261 267 149 327 301 266 260 246 253 260 259 265 273 270 274 279 278 271 269 261 269 270 267 263 269 262 257 247 247 267
320 320 331 330 332 330 324 318 315 315 316 313 313 294 263 251 285 299 287 280 278 279 265 253 260 257 270 270 270 275 277 277 271 273 270 267 270 264 266 259 254 242 236 246 213
320 329 332 332 331 328 321 317 312 311 310 304 305 238 257 270 287 285 276 265 255 255 273 286 313 305 286 293 283 277 282 272 272 262 258 252 260 262 261 272 235 247 244 246 190
309 318 321 325 330 327 320 314 306 304 302 292 272 214 262 257 245 280 296 304 272 250 240 253 267 257 265 258 263 258 261 265 274 276 266 255 251 263 254 256 218 249 250 253 190
320 313 317 322 329 326 322 316 304 290 279 249 252 271 250 218 327 302 285 268 257 240 243 232 236 237 236 240 250 252 254 259 270 271 277 275 239 241 258 267 242 228 226 249 230
312 317 321 321 324 325 327 326 349 187 260 268 268 254 288 290 300 285 270 242 229 243 228 200 215 228 227 237 243 258 272 266 273 281 301 272 260 247 253 266 244 255 247 227 222
316 312 316 320 320 320 318 323 25 314 295 272 259 256 265 274 275 268 225 224 221 232 227 242 231 242 251 252 249 262 258 265 277 283 285 277 282 261 265 267 281 271 263 263 229
308 315 311 317 319 313 305 340 331 327 265 276 244 234 234 211 237 254 199 224 239 239 230 242 249 243 238 252 262 256 250 236 249 276 288 291 279 273 260 270 262 265 265 266 251
305 305 308 325 303 328 299 1 333 328 279 256 183 213 181 213 238 228 225 223 230 240 250 260 259 254 256 259 231 254 251 280 280 258 263 277 276 259 259 252 241 234 229 233 218
296 292 299 319 301 301 335 330 320 291 287 119 136 135 185 205 7 191 196 208 249 250 231 250 252 247 255 258 258 254 253 264 280 274 267 257 263 267 272 276 269 271 208 208 213
297 287 292 307 283 268 303 317 298 238 240 209 166 198 209 213 240 193 185 222 278 261 253 261 268 268 256 263 278 263 234 255 273 271 257 261 260 261 254 255 254 249 232 209 224
292 284 281 296 281 312 321 292 241 235 222 233 203 195 230 237 207 221 240 212 231 232 245 243 241 240 246 241 255 270 224 243 254 253 257 254 250 241 248 248 260 267 181 130 120
286 282 278 278 272 285 280 251 235 253 232 278 311 240 251 244 238 257 233 258 254 243 259 274 274 238 214 228 231 237 212 205 234 246 289 323 281 263 238 230 249 290 209 153 166
300 280 269 259 254 269 254 228 230 242 266 300 262 240 254 261 227 272 241 267 272 23 291 300 261 50 338 226 212 233 230 224 248 270 279 249 274 279 271 93 219 251 207 175 174
289 282 266 249 237 238 232 241 254 259 302 271 276 258 267 259 252 218 247 265 206 84 2 292 301 296 287 202 229 225 251 240 220 234 267 250 271 275 344 330 266 275 196 210 184
287 261 267 232 193 212 227 228 239 255 268 286 277 282 277 281 281 284 247 268 331 149 60 326 290 281 286 227 238 207 231 246 221 249 235 264 268 32 287 206 208 12 348 313 222
252 249 239 169 194 216 234 241 260 267 284 234 268 278 284 290 279 274 265 264 77 341 317 324 303 287 267 257 283 314 245 226 238 246 242 252 261 279 35 331 354 356 348 352 18
225 259 248 196 231 222 239 250 254 264 235 265 251 254 262 270 270 268 278 295 310 301 291 328 254 255 264 270 270 260 256 245 228 243 250 245 263 311 222 271 324 297 340 337 351
251 250 212 228 248 264 257 251 239 235 248 261 265 269 268 266 266 267 270 271 275 256 92 58 269 272 278 264 338 311 321 316 274 238 252 251 259 255 204 327 288 302 331 318 326
218 245 241 225 233 244 261 273 280 261 209 225 240 247 261 266 265 257 255 256 254 218 219 231 260 269 273 278 279 274 277 290 295 286 232 249 271 285 291 293 305 328 331 323 312
229 256 234 243 237 265 258 258 271 266 255 233 253 258 248 253 261 266 280 286 272 273 245 235 241 252 265 271 272 266 265 257 270 279 280 284 279 288 275 302 289 275 279 293 302
201 258 278 259 259 267 254 252 259 254 271 275 227 289 288 304 342 310 304 297 286 287 295 294 261 241 250 256 264 259 253 264 262 264 265 263 271 280 284 283 289 300 305 293 276
Height
830 828 825 822 818 815 812 809 805 801 798 794 790 785 779 772 762 760 755 751 748 746 749 751 750 749 746 742 739 735 749 748 735 725 709 692 704 699 703 710 710 708 707 705 708
830 827 824 821 818 815 811 807 803 799 797 792 788 783 777 771 760 752 744 744 744 744 747 748 744 744 743 740 737 739 744 738 718 707 705 701 704 702 707 709 709 705 699 697 706
829 826 822 820 817 813 809 805 802 797 793 790 785 781 776 771 760 739 741 742 742 741 744 743 740 738 740 735 733 732 735 726 715 704 700 704 705 699 702 710 702 702 697 695 700
828 825 822 819 815 811 807 803 800 795 791 788 783 779 775 772 759 742 743 743 743 742 744 742 736 739 738 738 728 734 719 717 712 705 704 707 699 702 700 699 692 691 691 692 696
827 823 820 817 813 809 805 801 797 793 789 785 781 778 776 766 749 742 742 742 743 742 740 737 736 733 739 730 727 725 716 708 706 703 703 700 703 702 698 691 689 688 689 691 694
825 822 820 816 812 807 803 797 793 789 785 782 779 777 778 766 741 740 742 742 740 739 737 735 732 727 729 727 726 717 711 705 700 699 700 705 699 695 691 685 685 685 686 687 691
823 821 817 815 811 805 799 795 789 784 780 778 777 776 773 751 739 739 738 738 738 735 732 730 730 729 726 728 720 719 724 712 705 702 701 697 703 697 684 677 677 677 678 682 686
822 818 814 811 807 802 796 790 784 780 776 775 775 774 761 741 741 738 735 733 734 735 734 732 731 730 733 729 729 730 725 727 708 699 693 696 707 686 674 670 671 674 677 676 678
818 816 812 810 805 799 793 785 778 776 773 772 773 769 751 738 739 734 732 729 729 730 731 732 732 734 735 741 742 733 738 727 715 695 688 684 693 675 666 663 670 672 672 670 670
818 815 811 808 804 799 790 779 769 770 770 771 768 768 744 732 733 733 731 730 728 727 731 730 731 737 735 741 741 733 725 717 717 700 689 681 681 674 669 665 665 666 665 665 663
815 813 810 807 805 798 789 779 768 768 765 754 746 740 731 731 731 728 728 723 724 726 731 724 732 732 723 719 718 720 720 720 719 703 706 684 674 669 664 660 660 659 657 658 658
814 813 810 806 803 797 791 785 789 790 771 752 740 733 732 736 734 724 722 722 722 726 719 725 722 714 709 706 712 714 719 721 714 706 708 697 681 666 664 660 657 656 654 653 651
811 811 810 806 802 795 791 790 789 789 773 735 719 719 722 725 726 717 714 716 717 718 716 716 702 696 706 706 713 711 713 719 725 713 702 694 681 670 657 656 652 648 646 645 648
810 811 811 807 803 796 789 791 790 790 768 718 714 711 716 721 720 708 709 713 716 717 712 704 694 698 702 703 708 719 705 707 708 714 723 696 697 670 658 651 643 640 640 644 644
810 810 809 808 804 798 793 792 791 789 757 703 708 706 704 714 706 703 704 708 717 706 707 700 698 700 703 700 696 702 698 707 711 709 706 697 697 673 656 655 645 636 632 635 636
807 809 808 806 800 796 795 793 791 780 749 707 700 707 710 707 705 696 703 705 703 704 699 696 687 688 689 689 691 687 700 707 706 706 712 698 692 676 662 652 642 628 625 626 629
804 805 806 804 798 795 796 795 783 758 706 703 701 700 702 699 698 698 703 703 709 712 705 690 686 682 682 694 696 698 706 726 729 721 706 683 678 666 645 635 631 625 622 625 628
801 800 800 799 798 798 796 792 777 727 713 698 704 705 709 700 696 699 700 703 688 689 695 702 700 674 669 684 697 700 701 721 735 722 706 700 699 654 625 619 618 616 617 621 629
799 797 794 793 795 797 796 780 745 730 717 710 703 713 712 701 702 699 700 701 689 698 709 702 690 670 671 672 684 696 699 692 709 702 711 707 672 636 625 621 621 622 618 624 626
798 794 786 786 790 795 794 771 740 730 722 723 723 712 712 704 702 703 703 693 693 700 703 704 707 680 672 673 677 687 686 704 701 724 721 692 677 670 651 643 631 628 623 622 621
797 791 776 777 785 788 776 757 744 734 734 734 731 725 720 714 707 703 701 695 695 700 707 710 709 702 684 681 681 688 693 692 696 699 706 704 681 646 650 639 636 632 622 619 617
795 784 773 774 778 773 765 753 747 732 728 732 738 734 728 720 715 712 709 702 701 708 715 717 720 712 696 682 677 682 678 684 697 697 685 689 677 639 651 641 635 635 630 619 616
788 781 773 776 767 764 755 748 739 734 734 736 735 733 730 729 729 720 715 710 710 716 719 720 715 719 706 686 671 678 672 671 673 676 682 695 683 646 649 653 639 639 632 626 622
786 776 768 774 766 757 757 744 733 729 731 733 732 731 731 730 725 725 722 719 717 717 726 730 726 721 711 692 700 702 691 684 668 703 679 670 665 652 652 653 649 636 632 630 627
785 769 759 759 759 754 749 753 748 734 732 734 734 734 731 731 726 724 721 719 715 716 721 725 727 721 711 697 698 695 695 694 687 673 687 677 665 655 655 662 643 637 636 633 630
776 772 753 753 757 756 746 742 739 732 724 738 730 727 724 727 724 723 718 715 714 711 713 716 721 719 712 699 691 692 687 687 685 675 668 664 661 647 647 640 641 640 638 638 634
773 770 768 748 744 746 741 747 735 733 733 731 730 743 734 728 733 733 732 731 730 729 731 726 715 713 710 700 690 689 683 679 675 667 666 671 660 650 645 642 638 638 638 635 634